www.pogodaiklimat.ru

Погода и климат >> Архив погоды >> Россия >> Якутия >> Усть-Оленек


ПОГОДА на Усть-Оленеке

  • Прогноз погоды на Усть-Оленеке
  • Монитор погоды на Усть-Оленеке

АРХИВ ПОГОДЫ на Усть-Оленеке

Время (UTC), дата Ветер
(напр.,м/с)
 
Видим.   Явления Облачность Т
(С)
Тd
(С)
f
(%)
Тe
(С)
Тes
(С)
Комфортность P
(гПа)
Po
(гПа)
Тmin
(С)
Tmax
(С)
R
(мм)
R24
(мм)
S
(см)
09 19.03 Ю 6 50 км позёмок ясно -30.6 -35.1 65 -44 -44 опасность
обморожения
1021.1 1019.0
12 19.03 Ю 8-10
{12}
20 км позёмок 4/0
[Ci sp]
-29.4 -33.9 65 -45 -45 опасность
обморожения
1020.1 1018.0 -28.8
15 19.03 Ю 7-11
{12}
20 км позёмок 10/0
[Cs]
-29.5 -33.3 69 -44 -44 опасность
обморожения
1018.5 1016.4
18 19.03 Ю 8-11
{13}
20 км позёмок 10/0
[Cs]
-28.5 -32.4 69 -43 -43 опасность
обморожения
1018.0 1015.9
21 19.03 Ю 8-11
{12}
20 км позёмок 10/0
[Cs]
-27.9 -31.7 70 -43 -43 опасность
обморожения
1017.0 1014.9
00 20.03 Ю 8-11
{13}
50 км позёмок 10/0
[Ac trans Cs]
-25.6 -29.6 69 -40 -40 опасность
обморожения
1016.2 1014.1 -31.6 26
03 20.03 Ю 6-10
{12}
50 км позёмок 10/0
[As trans]
-24.7 -28.6 70 -37 -37 опасность
обморожения
1015.5 1013.4
06 20.03 Ю 3
{10}
50 км слаб. снег {метель} 10/0
[Ac As]
-20.3 -24.4 70 -28 -28 1015.4 1013.4
09 20.03 штиль 0 10 км слаб. снег 10/0
[Ac As]
-19.4 -23.5 70 -19 -19 1015.2 1013.2
12 20.03 штиль 0 20 км в посл. час снег 10/0
[Ac lent Cs]
-18.8 -22.9 70 -19 -19 1015.5 1013.5 -18.8 0.2
15 20.03 Ю 2 20 км 10/0
[Cs]
-22.2 -26.3 69 -28 -28 1015.8 1013.7
18 20.03 Ю 2 20 км 10/0
[Cs]
-24.0 -28.0 69 -30 -30 1015.2 1013.1
21 20.03 Ю 3 20 км 10/0
[Cs]
-23.9 -27.9 69 -32 -32 опасность
обморожения
1014.5 1012.4
00 21.03 З 6
{11}
50 км позёмок 10/0
[Ac As]
-20.6 -24.6 70 -32 -32 опасность
обморожения
1013.5 1011.5 -25.5 24
03 21.03 ЮЗ 7-10
{13}
50 км позёмок 10/0
[As trans]
-16.0 -20.2 70 -27 -26 1011.9 1009.9
06 21.03 З 6
{11}
2000 м снег {метель} 10/0
[As op]
-14.6 -18.1 75 -24 -24 1011.4 1009.4
09 21.03 ЮЗ 4
{10}
50 км в посл. час снег {метель} 10/3 1000 м
[Sc Ac trans Ci fib]
-14.0 -17.5 75 -22 -22 1010.4 1008.4
12 21.03 Ю 3 20 км {снег, метель} 10/4 1000 м
[Sc Ac und]
-17.9 -21.3 75 -25 -25 1009.4 1007.4 -13.8 1
15 21.03 Ю 2 20 км 10/0
[Ac As]
-16.9 -20.8 72 -22 -22 1006.7 1004.7
18 21.03 Ю 2 20 км 10/0
[Ac As]
-17.8 -21.2 75 -23 -23 1003.6 1001.6
21 21.03 Ю 3 20 км 10/0
[Ac As]
-17.4 -20.8 75 -24 -24 1000.2 998.2
00 22.03 Ю 4 10 км слаб. снег 10/0
[Ac As]
-14.7 -18.1 75 -22 -22 997.4 995.4 -18.3 0.0 26
03 22.03 Ю 7-10
{12}
2000 м снег {метель} 10/0
[Ac As]
-14.0 -17.5 75 -24 -24 995.5 993.5
06 22.03 Ю 6
{11}
10 км слаб. снег {метель} 10/0
[Ac As]
-14.0 -17.5 75 -23 -23 994.3 992.3
09 22.03 Ю 6
{10}
10 км слаб. снег {метель} 10/0
[Ac lent Cs]
-13.7 -17.2 75 -23 -23 994.4 992.4
12 22.03 Ю 1 20 км в посл. час снег {метель} 10/0
[Ac As]
-15.2 -18.6 75 -18 -18 995.4 993.4 -13.6 1
15 22.03 Ю 2 20 км 10/0
[Ac As]
-17.0 -20.4 75 -22 -22 997.3 995.3
18 22.03 С 7-10
{11}
10 км слаб. снег {метель} 10/0
[Ac As]
-20.8 -23.3 80 -33 -33 опасность
обморожения
999.9 997.9
21 22.03 С 6-10
{12}
10 км слаб. снег {метель} 10/0
[Ac lent Cs]
-24.2 -26.7 80 -36 -36 опасность
обморожения
1002.4 1000.4
00 23.03 С 6
{10}
50 км позёмок {снег} 10/0
[Ac lent Cs]
-25.2 -27.7 80 -38 -37 опасность
обморожения
1004.4 1002.4 -25.2 0.2 25
03 23.03 С 6
{10}
50 км позёмок 10/0
[Ac lent Cs]
-23.8 -27.0 75 -36 -35 опасность
обморожения
1006.3 1004.3
06 23.03 С 6
{11}
50 км позёмок 10/0
[Cs]
-22.6 -25.8 75 -34 -34 опасность
обморожения
1007.7 1005.6
09 23.03 С 6
{10}
50 км позёмок 10/0
[Cs]
-22.7 -25.9 75 -34 -34 опасность
обморожения
1009.8 1007.7
12 23.03 С 3 20 км {метель} 10/0
[Ac lent Cs]
-24.3 -27.5 75 -33 -33 опасность
обморожения
1011.2 1009.1 -22.4
15 23.03 С 4 10 км слаб. снег 10/0
[Ac As]
-24.2 -27.4 75 -34 -34 опасность
обморожения
1012.0 1009.9
18 23.03 С 2 10 км слаб. снег 10/0
[Ac As]
-24.9 -28.1 75 -32 -32 опасность
обморожения
1013.0 1010.9
21 23.03 С 3 10 км слаб. снег 10/0
[Ac lent Cs]
-28.1 -31.2 75 -37 -37 опасность
обморожения
1013.8 1011.7
00 24.03 С 2 50 км {снег} 10/0
[Ac lent Cs]
-27.2 -30.3 75 -34 -34 опасность
обморожения
1014.3 1012.2 -28.2 0.4 24
03 24.03 С 1 50 км 10/0
[As trans]
-25.3 -28.5 75 -29 -28 1015.3 1013.2
06 24.03 штиль 0 50 км 10/0
[Cs]
-23.4 -26.6 75 -23 -21 1016.0 1013.9
09 24.03 Ю 1 50 км 10/0
[Cs]
-26.3 -30.1 70 -30 -30 1016.9 1014.8
12 24.03 Ю 2 20 км 10/0
[Cs]
-29.6 -33.3 70 -37 -37 опасность
обморожения
1017.9 1015.8 -23.3
15 24.03 Ю 3 20 км 10/0
[Ci fib]
-30.0 -33.7 70 -40 -40 опасность
обморожения
1018.0 1015.9
18 24.03 Ю 2 20 км 10/0
[Ci fib]
-29.2 -33.0 70 -37 -37 опасность
обморожения
1018.0 1015.9
21 24.03 Ю 3 20 км 10/0
[Ci fib]
-30.2 -33.9 70 -40 -40 опасность
обморожения
1018.0 1015.9
00 25.03 ЮВ 4 50 км 10/0
[Ci fib]
-29.6 -33.3 70 -41 -40 опасность
обморожения
1018.1 1016.0 -30.4 24
03 25.03 ЮВ 6
{10}
50 км позёмок 10/0
[Ci fib]
-28.3 -32.1 70 -41 -41 опасность
обморожения
1018.0 1015.9
06 25.03 Ю 6
{11}
50 км позёмок 6/0
[Ci fib]
-27.3 -31.2 69 -40 -39 опасность
обморожения
1018.4 1016.3
09 25.03 Ю 6
{12}
50 км позёмок 10/0
[Ac trans Ci fib]
-27.2 -31.8 65 -40 -40 опасность
обморожения
1018.3 1016.2
12 25.03 Ю 6
{10}
20 км позёмок 10/0
[Ac lent Ci fib]
-26.7 -31.4 64 -39 -39 опасность
обморожения
1018.5 1016.4 -26.7
15 25.03 Ю 5
{11}
20 км позёмок 10/0
[Ac lent Ci fib]
-25.8 -30.5 65 -37 -37 опасность
обморожения
1019.2 1017.1
18 25.03 Ю 3 20 км {метель} 10/0
[Ci fib]
-24.0 -28.5 66 -32 -32 опасность
обморожения
1018.2 1016.1
21 25.03 Ю 3 20 км 10/0
[Ci fib]
-24.3 -28.2 70 -33 -33 опасность
обморожения
1018.0 1015.9
00 26.03 Ю 4 50 км 3/0
[Ci fib]
-24.7 -28.6 70 -35 -34 опасность
обморожения
1017.8 1015.7 -27.9 24
03 26.03 Ю 7-10
{11}
50 км позёмок 6/0
[Ci fib]
-22.7 -27.5 65 -35 -35 опасность
обморожения
1017.5 1015.4

 

Местоположение метеостанции Усть-Оленек (Якутия, Россия): широта 73.00 долгота 119.80 высота над уровнем моря 15 м.

В архиве по умолчанию представлена погода на Усть-Оленеке за последнюю неделю. Архивные данные за месяц целиком и за предыдущие месяцы, начиная с января 2011 года, Вы можете получить, выбрав интересующий диапазон дат из раскрывающегося списка и нажав кнопку "Ввод!".


*Определитесь, кто Вы:
робот инопланетянин человек

Внимание! Время в таблицах - всемирное. Для получения местного времени необходимо прибавить поправку, которая равна 9 ч.

Смотрите также архив погоды в соседних городах и на ближайших метеорологических станциях:

Погода в Тюмяти (Якутия, Россия) (173 км)
Погода в Анабаре (Якутия, Россия) (205 км)
Погода на Столб Острове (Якутия, Россия) (225 км)
Погода в Саскылахе (Якутия, Россия) (225 км)
Погода на Острове Преображения (Якутия, Россия) (282 км)
Погода на Мысе Быков (Якутия, Россия) (330 км)
Погода в Тикси (Якутия, Россия) (346 км)
Погода в Кюсюре (Якутия, Россия) (368 км)
Погода в Джалинде (Якутия, Россия) (380 км)
Погода в Сухане (Якутия, Россия) (490 км)

Пояснения к столбцам:

Ветер - указаны скорость ветра в м/с - средняя за 10 мин, порывы в срок и между сроками (в фигурных скобках) и направление, откуда дует ветер: С - северный, СВ - северо-восточный, В - восточный, ЮВ - юго-восточный, Ю - южный, ЮЗ - юго-западный, З - западный, СЗ - северо-западный.
Видимость - горизонтальная дальность видимости в метрах или километрах. При видимости от 1 до 10 км при отсутствии осадков обычно наблюдается дымка, при ухудшении видимости до 1 км и менее - туман. В сухую погоду видимость может ухудшаться дымом, пылью или мглою.
Явления - указаны атмосферные явления, наблюдавшиеся в срок или в последний час перед сроком; фигурными скобками обозначены явления, наблюдавшиеся между сроками (за 1-3 часа до срока); квадратными скобками обозначены град или гололедные отложения с указанием их диаметра в мм.
Облачность - указаны через наклонную черту общая и нижняя облачность в баллах и высота нижней границы облаков в метрах; квадратными скобками обозначены формы облаков: Ci - перистые, Cs - перисто-слоистые, Cc - перисто-кучевые, Ac - высококучевые, As - высокослоистые, Sc - слоисто-кучевые, Ns - слоисто-дождевые, Cu - кучевые, Cb - кучево-дождевые. Подробнее классификацию облаков см. в Атласе облаков (PDF).
T - Температура воздуха - температура, измеренная на высоте 2 м над землей.
Td - Температура точки росы - температура, при понижении до которой содержащийся в воздухе водяной пар достигнет насыщения.
f - Относительная влажность воздуха - влажноcть воздуха, измеренная на высоте 2 м над землей.
Te - Эффективная температура - температура, которую ощущает одетый по сезону человек в тени. Характеристика душности погоды. При расчете учитывается влияние влажности воздуха и скорости ветра на теплоощущения человека.
Tes - Эффективная температура на солнце - температура, которую ощущает человек, с поправкой на солнечный нагрев. Характеристика знойности погоды. Зависит от высоты солнца над горизонтом, облачности и скорости ветра. Ночью, в пасмурную погоду, а также при ветре 12 м/с и более поправка равна нулю.
P - Атмосферное давление - приведенное к уровню моря атмосферное давление.
Po - Атмосферное давление - измеренное на уровне метеостанции атмосферное давление.
Tmin - Минимальная температура - минимум температуры воздуха на высоте 2 м над землей.
Tmax - Максимальная температура - максимум температуры воздуха на высоте 2 м над землей.
R - Количество осадков - Количество выпавших осадков за период времени, мм. При наведении курсора мыши на число - период времени, за который выпало указанное количество осадков.
R24 - Количество осадков - Количество выпавших осадков за 24 часа, мм.
S - Снежный покров - Высота снежного покрова, см. При наведении курсора мыши на число - состояние снежного покрова и степень покрытия местности в баллах.